This is the latest recevied weather packets stored in our database for station/object KQ4WWD. If no packets are shown the sender has not sent any weather packets the latest 10 day(s).
| Time | Temp. | Humidity | Pressure | Rain* | Wind** | Luminosity | Snow |
|---|---|---|---|---|---|---|---|
| 1788483285 | 28.33° C | 88% | 1013.8 hPa | 0 mm | - | 0 W/m² | - |
| 1788482985 | 28.33° C | 88% | 1013.5 hPa | 0 mm | - | 0 W/m² | - |
| 1788482681 | 28.33° C | 88% | 1013.5 hPa | 0 mm | - | 0 W/m² | - |
| 1788482381 | 28.89° C | 88% | 1013.6 hPa | 0 mm | - | 0 W/m² | - |
| 1788482077 | 28.89° C | 88% | 1013.5 hPa | 0 mm | - | 0 W/m² | - |
| 1788481772 | 28.89° C | 87% | 1013.7 hPa | 0 mm | - | 0 W/m² | - |
| 1788481469 | 28.89° C | 87% | 1013.7 hPa | 0 mm | - | 0 W/m² | - |
| 1788481167 | 28.89° C | 87% | 1013.7 hPa | 0 mm | - | 0 W/m² | - |
| 1788480863 | 28.89° C | 87% | 1013.7 hPa | 0 mm | - | 0 W/m² | - |
| 1788480558 | 28.89° C | 87% | 1013.7 hPa | 0 mm | - | 0 W/m² | - |
| 1788480257 | 28.89° C | 87% | 1013.7 hPa | 0 mm | - | 0 W/m² | - |
| 1788479952 | 28.33° C | 89% | 1013.5 hPa | 0 mm | - | 0 W/m² | - |
| 1788479649 | 28.33° C | 89% | 1013.3 hPa | 0 mm | - | 0 W/m² | - |
| 1788479348 | 28.33° C | 89% | 1013.4 hPa | 0 mm | - | 0 W/m² | - |
| 1788479044 | 28.89° C | 89% | 1013.3 hPa | 0 mm | - | 1 W/m² | - |
| 1788478740 | 28.89° C | 89% | 1013.1 hPa | 0 mm | - | 5 W/m² | - |
| 1788478436 | 28.89° C | 89% | 1013.1 hPa | 0 mm | - | 9 W/m² | - |
| 1788478135 | 28.89° C | 88% | 1013.2 hPa | 0 mm | - | 13 W/m² | - |
| 1788477831 | 28.89° C | 88% | 1013 hPa | 0 mm | - | 19 W/m² | - |
| 1788477530 | 28.89° C | 87% | 1013.3 hPa | 0 mm | - | 25 W/m² | - |
| 1788477225 | 28.89° C | 87% | 1013.2 hPa | 0 mm | - | 29 W/m² | - |
| 1788476921 | 29.44° C | 87% | 1013 hPa | 0 mm | - | 35 W/m² | - |
| 1788476616 | 29.44° C | 86% | 1013.1 hPa | 0 mm | - | 40 W/m² | - |
| 1788476312 | 29.44° C | 86% | 1012.8 hPa | 0 mm | - | 44 W/m² | - |
| 1788476008 | 29.44° C | 85% | 1012.9 hPa | 0 mm | - | 46 W/m² | - |
* Rain latest hour (hover to see other rain measurements)
** Current wind speed in m/s (hover to see current wind gust speed)